Regional Weather Roundup
Issued by NWS

Home | Current Version | Previous Version | Text Only | Print | Product List | Glossary Off
Versions: 1 2 3 4 5 6 7 8 9 10 11 12 13 14 15 16 17 18 19 20 21 22 23 24 25 26 27 28 29 30 31 32 33 34 35 36 37 38 39 40 41 42 43 44 45 46 47 48 49 50

000
ASUS43 KBIS 220459
RWRND

NORTH DAKOTA REGIONAL WEATHER ROUNDUP
NATIONAL WEATHER SERVICE BISMARCK ND
1200 AM CDT TUE JUL 22 2014

NOTE: "FAIR" INDICATES FEW OR NO CLOUDS BELOW 12,000 FEET WITH NO
SIGNIFICANT WEATHER AND/OR OBSTRUCTIONS TO VISIBILITY.


NDZ001>003-009>011-017-220600-
NORTHWEST NORTH DAKOTA

CITY           SKY/WX    TMP DP  RH WIND       PRES   REMARKS
WILLISTON      CLEAR     62  57  83 N5        30.01R
MINOT          CLOUDY    63  61  93 NW7       29.97R
$$

NDZ018>021-031>035-040>046-220600-
SOUTHWEST NORTH DAKOTA

CITY           SKY/WX    TMP DP  RH WIND       PRES   REMARKS
BISMARCK       MOCLDY    65  63  93 NW8       29.96R
GARRISON         N/A     64  63  96 NW7       29.97S
HETTINGER ARPT CLEAR     62  60  93 N6        30.04R
$$

NDZ004>008-012>016-024-026-027-054-220600-
NORTHEAST NORTH DAKOTA

CITY           SKY/WX    TMP DP  RH WIND       PRES   REMARKS
GRAND FORKS    LGT RAIN  67  64  90 NE9       29.77R
DEVILS LAKE    CLOUDY    66  61  82 NW9       29.91R
$$

NDZ022-023-025-028>030-036>039-047>053-220600-
SOUTHEAST NORTH DAKOTA

CITY           SKY/WX    TMP DP  RH WIND       PRES   REMARKS
FARGO          LGT RAIN  69  66  90 NW24G31   29.77F
$$



USA.gov is the U.S. government's official web portal to all federal, state and local government web resources and services.